Weather History for KTOC - January, 2014

Change the Weather History Date:

Monday, January 20, 2014

  Actual Average Record
Temperature  
Mean Temperature 53 °F -  
Max Temperature 69 °F 51 °F 69 °F (2014)
Min Temperature 37 °F 32 °F 37 °F (2014)
Degree Days  
Heating Degree Days 12    
Growing Degree Days 3 (Base 50)    
Moisture  
Dew Point 25 °F    
Average Humidity 38    
Maximum Humidity 65    
Minimum Humidity 19    
Precipitation  
Precipitation 0.00 in - - ()
Sea Level Pressure  
Sea Level Pressure 29.92 in    
Wind  
Wind Speed 7 mph (WSW)    
Max Wind Speed 14 mph    
Max Gust Speed 22 mph    
Visibility 10 miles    
Events      
Averages and records for this station are not official NWS values.
T = Trace of Precipitation, MM = Missing Value Source: NWS Daily Summary

Daily Weather History Graph

Daily Weather History Graph

Search for Another Location

Airport or City:

Trip Planner

Search our weather history database for the weather conditions in past years. The results will help you decide how hot, cold, wet, or windy it might be!

Date:

Astronomy

Jan. 20, 2014 Rise Set
Actual Time 7:38 AM EST 5:50 PM EST
Civil Twilight 7:11 AM EST 6:17 PM EST
Nautical Twilight 6:40 AM EST 6:48 PM EST
Astronomical Twilight 6:10 AM EST 7:18 PM EST
Moon 10:11 PM EST (1/20) 9:49 AM EST (1/20)
Length of Visible Light 11h 06m
Length of Day
10h 12m
Waning Gibbous, 83% of the Moon is Illuminated
Jan 20
Waning Gibbous
Jan 24
Last Quarter
Jan 30
New
Feb 6
First Quarter
Feb 14
Full

Hourly Weather History & Observations

Time (EST) Temp. Windchill Dew Point Humidity Pressure Visibility Wind Dir Wind Speed Gust Speed Precip Events Conditions
12:15 AM 41.2 °F 38.2 °F 27.0 °F 57% 29.99 in 10.0 mi West 4.6 mph - N/A   Clear
12:35 AM 38.7 °F 32.9 °F 27.5 °F 64% 29.99 in 10.0 mi WSW 8.1 mph - N/A   Clear
12:55 AM 39.0 °F 34.0 °F 27.5 °F 63% 29.99 in 10.0 mi WSW 6.9 mph - N/A   Clear
1:15 AM 39.0 °F 34.8 °F 27.3 °F 63% 29.98 in 10.0 mi WSW 5.8 mph - N/A   Clear
1:35 AM 37.8 °F 31.8 °F 26.8 °F 65% 29.96 in 10.0 mi SW 8.1 mph - N/A   Clear
1:55 AM 38.8 °F 33.8 °F 26.4 °F 61% 29.97 in 10.0 mi WSW 6.9 mph - N/A   Clear
2:15 AM 39.4 °F 33.2 °F 25.7 °F 58% 29.96 in 10.0 mi WSW 9.2 mph - N/A   Clear
2:35 AM 41.7 °F 36.7 °F 24.8 °F 51% 29.96 in 10.0 mi WSW 8.1 mph - N/A   Clear
2:55 AM 39.6 °F 33.5 °F 25.5 °F 57% 29.96 in 10.0 mi WSW 9.2 mph - N/A   Clear
3:15 AM 39.6 °F 34.0 °F 25.7 °F 58% 29.96 in 10.0 mi WSW 8.1 mph - N/A   Clear
3:35 AM 39.9 °F 34.5 °F 25.5 °F 56% 29.96 in 10.0 mi WSW 8.1 mph - N/A   Clear
3:55 AM 40.8 °F 36.9 °F 24.6 °F 53% 29.96 in 10.0 mi West 5.8 mph - N/A   Clear
4:15 AM 41.2 °F 39.2 °F 23.9 °F 50% 29.96 in 10.0 mi West 3.5 mph - N/A   Clear
4:35 AM 39.0 °F 35.7 °F 24.3 °F 55% 29.95 in 10.0 mi WSW 4.6 mph - N/A   Clear
4:55 AM 39.6 °F 34.7 °F 23.9 °F 54% 29.95 in 10.0 mi WSW 6.9 mph - N/A   Clear
5:15 AM 39.9 °F 36.7 °F 23.7 °F 52% 29.95 in 10.0 mi West 4.6 mph - N/A   Clear
5:35 AM 39.4 °F - 22.8 °F 52% 29.95 in 10.0 mi Calm Calm - N/A   Clear
5:55 AM 40.5 °F 38.4 °F 21.2 °F 46% 29.95 in 10.0 mi West 3.5 mph - N/A   Clear
6:15 AM 40.1 °F 36.9 °F 21.2 °F 47% 29.94 in 10.0 mi West 4.6 mph - N/A   Clear
6:35 AM 39.9 °F - 21.0 °F 47% 29.95 in 10.0 mi Calm Calm - N/A   Clear
6:55 AM 40.3 °F 38.2 °F 20.1 °F 45% 29.95 in 10.0 mi West 3.5 mph - N/A   Clear
7:15 AM 39.6 °F 35.4 °F 20.7 °F 47% 29.95 in 10.0 mi WSW 5.8 mph - N/A   Clear
7:35 AM 40.3 °F 36.3 °F 20.8 °F 46% 29.95 in 10.0 mi WSW 5.8 mph - N/A   Clear
7:55 AM 40.8 °F 36.2 °F 21.2 °F 46% 29.96 in 10.0 mi WSW 6.9 mph - N/A   Clear
8:15 AM 42.6 °F 37.2 °F 21.6 °F 43% 29.95 in 10.0 mi WSW 9.2 mph - N/A   Clear
8:35 AM 41.9 °F 38.2 °F 23.0 °F 47% 29.95 in 10.0 mi SW 5.8 mph - N/A   Clear
8:55 AM 44.1 °F 39.5 °F 23.7 °F 45% 29.96 in 10.0 mi WSW 8.1 mph - N/A   Clear
9:15 AM 46.6 °F - 24.1 °F 41% 29.96 in 10.0 mi SW 8.1 mph - N/A   Clear
9:35 AM 48.4 °F - 24.3 °F 39% 29.96 in 10.0 mi SW 10.4 mph - N/A   Clear
9:55 AM 50.2 °F - 24.4 °F 37% 29.97 in 10.0 mi SW 8.1 mph - N/A   Clear
10:15 AM 52.2 °F - 24.6 °F 34% 29.97 in 10.0 mi SW 6.9 mph - N/A   Clear
10:35 AM 53.2 °F - 25.0 °F 33% 29.97 in 10.0 mi SW 9.2 mph - N/A   Clear
10:55 AM 57.2 °F - 22.8 °F 27% 29.97 in 10.0 mi WSW 8.1 mph - N/A   Clear
11:15 AM 58.8 °F - 23.4 °F 26% 29.96 in 10.0 mi WSW 9.2 mph - N/A   Clear
11:35 AM 60.3 °F - 23.5 °F 24% 29.95 in 10.0 mi WSW 10.4 mph - N/A   Clear
11:55 AM 61.5 °F - 23.9 °F 24% 29.94 in 10.0 mi WSW 10.4 mph - N/A   Clear
12:15 PM 63.1 °F - 24.6 °F 23% 29.93 in 10.0 mi SW 9.2 mph - N/A   Clear
12:35 PM 63.9 °F - 24.4 °F 22% 29.92 in 10.0 mi SW 9.2 mph - N/A   Clear
12:55 PM 64.9 °F - 24.3 °F 21% 29.90 in 10.0 mi West 10.4 mph 19.6 mph N/A   Clear
1:15 PM 65.7 °F - 24.8 °F 21% 29.89 in 10.0 mi WSW 11.5 mph - N/A   Clear
1:35 PM 66.2 °F - 26.1 °F 22% 29.88 in 10.0 mi WSW 11.5 mph 16.1 mph N/A   Clear
1:55 PM 68.0 °F - 26.4 °F 21% 29.87 in 10.0 mi WSW 9.2 mph 18.4 mph N/A   Clear
2:15 PM 68.0 °F - 26.2 °F 21% 29.86 in 10.0 mi West 8.1 mph - N/A   Clear
2:35 PM 69.1 °F - 26.4 °F 20% 29.86 in 10.0 mi West 8.1 mph 18.4 mph N/A   Clear
2:55 PM 69.3 °F - 26.4 °F 20% 29.86 in 10.0 mi WSW 12.7 mph 19.6 mph N/A   Clear
3:15 PM 69.1 °F - 26.2 °F 20% 29.85 in 10.0 mi WSW 12.7 mph 18.4 mph N/A   Clear
3:35 PM 69.4 °F - 26.2 °F 20% 29.85 in 10.0 mi West 9.2 mph 17.3 mph N/A   Clear
3:55 PM 68.9 °F - 25.7 °F 20% 29.85 in 10.0 mi WSW 12.7 mph 18.4 mph N/A   Clear
4:15 PM 68.0 °F - 24.6 °F 19% 29.86 in 10.0 mi West 9.2 mph 21.9 mph N/A   Clear
4:35 PM 67.3 °F - 26.4 °F 22% 29.86 in 10.0 mi WSW 13.8 mph - N/A   Clear
4:55 PM 66.2 °F - 25.7 °F 22% 29.86 in 10.0 mi WSW 12.7 mph 20.7 mph N/A   Clear
5:15 PM 65.3 °F - 24.8 °F 22% 29.87 in 10.0 mi West 10.4 mph 19.6 mph N/A   Clear
5:35 PM 63.1 °F - 26.6 °F 25% 29.87 in 10.0 mi WSW 6.9 mph - N/A   Clear
5:55 PM 61.2 °F - 26.6 °F 27% 29.87 in 10.0 mi WSW 11.5 mph - N/A   Clear
6:15 PM 59.7 °F - 27.1 °F 29% 29.87 in 10.0 mi WSW 8.1 mph - N/A   Clear
6:35 PM 58.1 °F - 27.3 °F 31% 29.87 in 10.0 mi WSW 6.9 mph - N/A   Clear
6:55 PM 56.3 °F - 27.3 °F 33% 29.87 in 10.0 mi SW 6.9 mph - N/A   Clear
7:15 PM 55.8 °F - 27.0 °F 33% 29.88 in 10.0 mi WSW 4.6 mph - N/A   Clear
7:35 PM 56.3 °F - 27.0 °F 32% 29.88 in 10.0 mi WSW 5.8 mph - N/A   Clear
7:55 PM 55.4 °F - 27.5 °F 34% 29.88 in 10.0 mi WSW 8.1 mph - N/A   Clear
8:15 PM 54.3 °F - 27.5 °F 36% 29.88 in 10.0 mi WSW 6.9 mph - N/A   Clear
8:35 PM 54.3 °F - 27.7 °F 36% 29.88 in 10.0 mi WSW 6.9 mph - N/A   Clear
8:55 PM 53.1 °F - 27.9 °F 38% 29.88 in 10.0 mi West 4.6 mph - N/A   Clear
9:15 PM 57.2 °F - 27.0 °F 31% 29.88 in 10.0 mi West 4.6 mph - N/A   Clear
9:35 PM 55.9 °F - 27.1 °F 33% 29.87 in 10.0 mi WNW 4.6 mph - N/A   Clear
9:55 PM 55.9 °F - 27.0 °F 33% 29.87 in 10.0 mi WNW 4.6 mph - N/A   Clear
10:15 PM 55.0 °F - 27.1 °F 34% 29.87 in 10.0 mi Calm Calm - N/A   Clear
10:35 PM 51.3 °F - 28.2 °F 41% 29.87 in 10.0 mi Calm Calm - N/A   Clear
10:55 PM 49.6 °F - 28.8 °F 45% 29.86 in 10.0 mi WSW 5.8 mph - N/A   Clear
11:15 PM 49.8 °F - 28.4 °F 44% 29.85 in 10.0 mi WSW 4.6 mph - N/A   Clear
11:35 PM 45.7 °F 41.0 °F 29.8 °F 54% 29.85 in 10.0 mi SW 9.2 mph - N/A   Clear
11:55 PM 49.5 °F - 28.6 °F 45% 29.85 in 10.0 mi WSW 6.9 mph - N/A   Clear